This demonstration page uses our WeatherBlox Daily Observations layout. Learn more.

Left ArrowRight Arrow

39.08367, -84.50855

Hourly Observations for May 24, 2017

Temp ( °F °C ) Dew Point ( °F °C ) Humidity (%) Winds ( mph kmh ) Pressure ( in mb ) Visibility ( mi km ) Precip ( " mm )
12:53 am 00:53 Mostly Clear 64 17.8 60 15.6 87 87 S 7 11 29.63 1003 10 16.0934 N/A
1:53 am 01:53 Partly Cloudy 64 17.8 60 15.6 87 87 N N/A 29.61 1003 10 16.0934 N/A
2:53 am 02:53 Mostly Clear 61 16.1 60 15.6 97 97 E 3 6 29.59 1002 10 16.0934 N/A
3:53 am 03:53 Partly Cloudy 60 15.6 60 15.6 100 100 N N/A 29.57 1002 8 12.87472 N/A
4:53 am 04:53 Mostly Clear with Mist and Fog 58 14.4 58 14.4 100 100 NE 3 6 29.55 1001 3 4.82802 N/A
5:51 am 05:51 Clear with Mist and Fog 57 14 57 14 100 100 N N/A 29.56 1001 1.5 2.41401 N/A
5:53 am 05:53 Clear with Mist and Fog 58 14.4 58 14.4 100 100 N N/A 29.56 1001 1 1.60934 N/A
6:04 am 06:04 Clear with Mist and Fog 58 14.4 58 14.4 100 100 N N/A 29.56 1001 3 4.82802 N/A
6:38 am 06:38 Mostly Cloudy with Mist and Fog 58 14.4 58 14.4 100 100 N N/A 29.56 1001 6 9.65604 N/A
6:53 am 06:53 Mostly Cloudy 60 15.6 59 15 96 96 NNE 3 6 29.54 1000 8 12.87472 N/A
7:05 am 07:05 Partly Cloudy 60 15.6 59 15 96 96 NNE 5 7 29.53 1000 7 11.26538 N/A
7:53 am 07:53 Partly Cloudy with Mist and Fog 60 15.6 60 15.6 100 100 N N/A 29.54 1000 6 9.65604 N/A
8:00 am 08:00 Partly Cloudy with Mist and Fog 61 16.1 61 16.1 100 100 N N/A 29.56 1001 6 9.65604 N/A
8:53 am 08:53 Mostly Cloudy 63 17.2 61 16.1 93 93 ESE 7 11 29.53 1000 10 16.0934 N/A
9:21 am 09:21 Mostly Cloudy 65 18.3 62 16.7 90 90 ESE 5 7 29.53 1000 10 16.0934 N/A
9:53 am 09:53 Mostly Cloudy 66 18.9 61 16.1 84 84 SSE 9 15 29.51 999 10 16.0934 N/A
10:53 am 10:53 Cloudy with Light Rain 66 18.9 62 16.7 87 87 VRB 5 7 29.5 999 9 14.48406 N/A
11:53 am 11:53 Cloudy 68 20 62 16.7 81 81 VRB 5 7 29.47 998 10 16.0934 0.01 0.254
12:40 pm 12:40 Mostly Cloudy 69 20.6 61 16.1 76 76 E 6 9 29.47 998 10 16.0934 N/A
12:53 pm 12:53 Mostly Cloudy 69 20.6 61 16.1 76 76 SE 8 13 29.45 997 10 16.0934 N/A
1:53 pm 13:53 Cloudy 69 20.6 60 15.6 73 73 SE 7 11 29.42 996 10 16.0934 N/A
2:53 pm 14:53 Mostly Cloudy 70 21.1 60 15.6 71 71 E 7 11 29.4 996 10 16.0934 N/A
3:53 pm 15:53 Cloudy 71 21.7 59 15 66 66 E 12 19 29.37 995 10 16.0934 N/A
4:07 pm 16:07 Cloudy with Nearby Thunderstorms 70 21.1 59 15 68 68 E 9 15 29.38 995 10 16.0934 N/A
4:29 pm 16:29 Cloudy 70 21.1 60 15.6 71 71 E 6 9 29.35 994 10 16.0934 N/A
4:37 pm 16:37 Cloudy with Nearby Thunderstorms 70 21.1 60 15.6 71 71 SE 5 7 29.35 994 10 16.0934 N/A
4:53 pm 16:53 Cloudy with Nearby Thunderstorms 70 21.1 62 16.7 76 76 S 5 7 29.35 994 10 16.0934 0.02 0.508
5:53 pm 17:53 Cloudy with Nearby Thunderstorms 70 21.1 59 15 68 68 SE 12 19 29.34 994 10 16.0934 N/A
6:53 pm 18:53 Cloudy with Nearby Thunderstorms 67 19.4 62 16.7 84 84 N N/A 29.34 994 6 9.65604 0.02 0.508
7:02 pm 19:02 Cloudy with Light Rain 66 18.9 62 16.7 87 87 W 10 17 29.35 994 8 12.87472 N/A
7:27 pm 19:27 Cloudy with Heavy Rain 62 16.7 61 16.1 96 96 WNW 13 20 29.35 994 2.5 4.02335 0.05 1.27
7:35 pm 19:35 Cloudy with Heavy Thunderstorms 61 16.1 61 16.1 100 100 NW 10 17 29.35 994 2 3.21868 0.18 4.572
7:53 pm 19:53 Cloudy with Heavy Thunderstorms 61 16.1 60 15.6 97 97 W 13 20 29.36 994 2 3.21868 0.59 14.986
8:02 pm 20:02 Cloudy with Heavy Thunderstorms 61 16.1 61 16.1 100 100 NW 13 20 29.38 995 3 4.82802 0.08 2.032
8:26 pm 20:26 Cloudy with Light Rain 61 16.1 60 15.6 97 97 N N/A 29.38 995 10 16.0934 0.09 2.286
8:39 pm 20:39 Cloudy 62 16.7 60 15.6 93 93 N N/A 29.38 995 10 16.0934 0.09 2.286
8:53 pm 20:53 Cloudy 61 16.1 60 15.6 97 97 VRB 5 7 29.35 994 10 16.0934 0.09 2.286
9:53 pm 21:53 Cloudy with Nearby Thunderstorms 61 16.1 60 15.6 97 97 N N/A 29.36 994 10 16.0934 N/A
10:00 pm 22:00 Cloudy with Nearby Thunderstorms 61 16.1 60 15.6 97 97 NW 6 9 29.38 995 10 16.0934 N/A
10:09 pm 22:09 Cloudy with Light Rain 61 16.1 60 15.6 97 97 NW 6 9 29.38 995 10 16.0934 N/A
10:30 pm 22:30 Cloudy with Light Rain 61 16.1 60 15.6 97 97 N N/A 29.38 995 10 16.0934 0.01 0.254
10:44 pm 22:44 Cloudy with Light Rain 61 16.1 60 15.6 97 97 N N/A 29.38 995 10 16.0934 0.01 0.254
10:53 pm 22:53 Cloudy with Light Rain 61 16.1 60 15.6 97 97 WNW 5 7 29.37 995 9 14.48406 0.02 0.508
11:53 pm 23:53 Cloudy 61 16.1 60 15.6 97 97 WSW 3 6 29.37 995 10 16.0934 N/A

Powered by AerisWeather